FW0058 Weather Reports


time (UTC)temp
F
wind
direction
speed
knots
gust
knots
rain 1hr
in
rain 24hr
in
rain mn
in
humidity
%
barometer
mb
20260507044519 63 240 0.0 4.3 0.00 0.00 0.00 75 1016.5
20260507043019 63 175 0.0 0.0 0.00 0.00 0.00 76 1016.4
20260507041518 63 186 0.0 3.5 0.00 0.00 0.00 76 1016.3
20260507040018 64 151 0.9 3.5 0.00 0.00 0.00 76 1016.2
20260507034520 64 142 0.9 4.3 0.00 0.00 0.00 75 1016.1
20260507033017 64 180 0.0 4.3 0.00 0.00 0.00 75 1015.9
20260507031515 64 161 0.0 4.3 0.00 0.00 0.00 74 1015.8
20260507030017 65 193 0.9 4.3 0.00 0.00 0.00 73 1015.6
20260507024514 65 148 2.6 6.1 0.00 0.00 0.00 72 1015.4
20260507023012 66 167 2.6 7.0 0.00 0.00 0.00 71 1015.3
20260507021511 66 146 1.7 7.8 0.00 0.00 0.00 70 1015.3
20260507020012 67 200 4.3 7.8 0.00 0.00 0.00 68 1015.2
20260507014509 68 212 4.3 8.7 0.00 0.00 0.00 66 1015.1
20260507013008 68 179 4.3 9.6 0.00 0.00 0.00 65 1015.0
20260507011508 69 152 4.3 9.6 0.00 0.00 0.00 64 1014.9
20260507010011 69 239 3.5 10.4 0.00 0.00 0.00 63 1014.9
20260507004505 70 155 5.2 9.6 0.00 0.00 0.00 61 1014.8
20260507003005 71 163 4.3 9.6 0.00 0.00 0.00 61 1014.8
20260507001505 71 200 4.3 9.6 0.00 0.00 0.00 59 1014.8
20260507000007 72 161 4.3 8.7 0.00 0.00 0.00 57 1014.7
20260506234501 72 186 4.3 10.4 0.00 0.00 0.00 58 1014.7
20260506233100 73 196 4.3 8.7 0.00 0.00 0.00 56 1014.7
20260506231559 73 229 4.3 8.7 0.00 0.00 0.00 55 1014.8
20260506230104 73 207 4.3 10.4 0.00 0.00 0.00 53 1014.9
20260506224555 74 261 2.6 8.7 0.00 0.00 0.00 51 1015.0
20260506223053 74 173 5.2 11.3 0.00 0.00 0.00 49 1015.2
20260506221601 75 163 3.5 10.4 0.00 0.00 0.00 47 1015.3
20260506220051 76 192 3.5 10.4 0.00 0.00 0.00 46 1015.4
20260506214547 75 141 2.6 8.7 0.00 0.00 0.00 48 1015.6
20260506213019 74 221 3.5 10.4 0.00 0.00 0.00 50 1015.8
20260506211530 75 188 6.1 12.2 0.00 0.00 0.00 49 1016.0
20260506210019 74 151 3.5 11.3 0.00 0.00 0.00 52 1016.1
20260506204516 74 192 3.5 11.3 0.00 0.00 0.00 54 1016.2
20260506203007 75 200 3.5 12.2 0.00 0.00 0.00 54 1016.3
20260506201507 74 188 3.5 9.6 0.00 0.00 0.00 55 1016.4
20260506200101 73 205 5.2 9.6 0.00 0.00 0.00 55 1016.6
20260506194558 74 217 5.2 9.6 0.00 0.00 0.00 55 1016.8
20260506193058 73 247 5.2 10.4 0.00 0.00 0.00 56 1016.9
20260506191601 73 190 1.7 7.8 0.00 0.00 0.00 58 1017.0
20260506190052 73 159 3.5 9.6 0.00 0.00 0.00 56 1017.2
20260506184548 72 136 0.9 7.0 0.00 0.00 0.00 58 1017.4
20260506183051 71 132 3.5 10.4 0.00 0.00 0.00 59 1017.5
20260506181601 72 143 1.7 6.1 0.00 0.00 0.00 59 1017.4
20260506180042 70 182 3.5 7.0 0.00 0.00 0.00 63 1017.6
20260506174540 69 217 1.7 7.8 0.00 0.00 0.00 63 1017.5
20260506173104 69 185 1.7 6.1 0.00 0.00 0.00 62 1017.6
20260506171542 69 140 2.6 7.0 0.00 0.00 0.00 63 1017.5
20260506170006 67 82 0.9 6.1 0.00 0.00 0.00 64 1017.6
20260506164504 66 90 2.6 6.1 0.00 0.00 0.00 66 1017.6
20260506163101 65 99 3.5 7.0 0.00 0.00 0.00 67 1017.6
20260506161558 65 64 2.6 7.0 0.00 0.00 0.00 68 1017.6
20260506160055 64 196 0.0 5.2 0.00 0.00 0.00 71 1017.7
20260506154609 63 30 1.7 4.3 0.00 0.00 0.00 71 1017.8
20260506153048 62 34 0.9 4.3 0.00 0.00 0.00 72 1017.8
20260506151545 62 167 0.0 1.7 0.00 0.00 0.00 73 1017.8
20260506150041 60 32 0.0 4.3 0.00 0.00 0.00 75 1017.8
20260506144544 59 76 0.9 4.3 0.00 0.00 0.00 75 1017.7
20260506143035 58 82 0.0 0.0 0.00 0.00 0.00 77 1017.7
20260506141534 57 51 0.0 4.3 0.00 0.00 0.00 78 1017.7
20260506140036 56 42 0.0 1.7 0.00 0.00 0.00 79 1017.5
20260506134532 56 19 0.0 0.0 0.00 0.00 0.00 80 1017.6
20260506133035 55 343 0.0 0.0 0.00 0.00 0.00 81 1017.4
20260506131526 55 35 0.0 0.0 0.00 0.00 0.00 82 1017.2
20260506130025 55 35 0.0 0.0 0.00 0.00 0.00 82 1017.0
20260506124524 55 39 0.0 0.0 0.00 0.00 0.00 82 1017.0
20260506123022 55 33 0.0 0.0 0.00 0.00 0.00 83 1016.8
20260506121521 55 43 0.0 0.0 0.00 0.00 0.00 83 1016.7
20260506120019 55 51 0.0 0.0 0.00 0.00 0.00 84 1016.7
20260506114521 56 67 0.0 0.0 0.00 0.00 0.00 84 1016.6
20260506113014 56 46 0.9 3.5 0.00 0.00 0.00 83 1016.6
20260506111514 56 44 0.0 0.0 0.00 0.00 0.00 83 1016.6
20260506110012 56 39 0.0 0.0 0.00 0.00 0.00 83 1016.5
20260506104532 56 39 0.0 0.0 0.00 0.00 0.00 82 1016.7
20260506103042 57 39 0.0 0.0 0.00 0.00 0.00 82 1016.6
20260506101547 57 57 0.0 1.7 0.00 0.00 0.00 82 1016.6
20260506100009 57 43 0.0 0.0 0.00 0.00 0.00 81 1016.6
20260506094508 57 54 1.7 4.3 0.00 0.00 0.00 81 1016.6
20260506093005 57 57 0.0 1.7 0.00 0.00 0.00 81 1016.6
20260506091504 57 54 0.9 3.5 0.00 0.00 0.00 81 1016.7
20260506090003 57 57 0.0 3.5 0.00 0.00 0.00 82 1016.8
20260506084600 57 44 0.0 1.7 0.00 0.00 0.00 83 1016.9
20260506083059 58 67 0.9 2.6 0.00 0.00 0.00 84 1016.9
20260506081600 58 102 0.0 0.0 0.00 0.00 0.00 84 1017.0
20260506080104 58 92 0.0 1.7 0.00 0.00 0.00 83 1017.1
20260506073053 58 98 1.7 3.5 0.00 0.00 0.00 83 1017.0
20260506071559 59 39 0.9 3.5 0.00 0.00 0.00 83 1017.1
20260506061543 59 103 0.0 4.3 0.00 0.00 0.00 81 1016.7